NINGXIA-1 3

Satellite information

Favourite Embed

Satellite Type and Status

PAYLOADIN ORBIT

Key statistics

Satellite NINGXIA-1 3 at a glance.

Uptime

2123

Days in orbit

Revolutions

≈ 14.0

Per day

Orbit

LEO

Low Earth Orbit

Inclination

45.0

Latest

Satellite identification and parameters

Extended collection of information and parameters for NINGXIA-1 3.

Object identification

Identified? True

Debris? False

Object name: NINGXIA-1 3

International designator: 2019-076C

Object number (NORAD): 44781

Object ID (CCSDS): 44781

Country: PEOPLES REPUBLIC OF CHINA (PRC)

Current information (Y/N): Y

RCS size: MEDIUM

Orbital parameters

Period: 102.711 minutes

Inclination: 45.0024 deg

SMA: 7265.063 km

Apoapsis: 894.747 km

Periapsis: 879.109 km

RAAN: 20.3821 deg

Eccentricy: 0.00107619

Argument of periapsis: 227.9209 deg

Mean anomaly: 132.0711 deg

Mean motion: 14.01986042 rev/day

Mean motion (dot): 0.00000058 rev/day2

B* drag term: 0.00012215344 1/REarth

Two-line elements (TLE)

Creation date: Sept. 3, 2025, 10:15 a.m.

Reference frame: TEME

Reference center: EARTH

Epoch: Sept. 3, 2025, 8 a.m. UTC

TLE line 0: 0 NINGXIA-1 3

TLE line 1: 1 44781U 19076C 25246.33376023 .00000058 00000-0 12215-3 0 9990

TLE line 2: 2 44781 45.0024 20.3821 0010762 227.9209 132.0711 14.01986042297608

Live tracking on map

Real-time ground track for satellite NINGXIA-1 3.

In-orbit conjunctions

There are no conjunctions computed for NINGXIA-1 3, at the moment. Check back to stay up to date, as we update our databases every day.

Go to all conjunctions

Associated space launch

Ningxia 1 is a constellation of remote sensing satellites developed by Dongfanghong Satellite Co., Ltd.

NINGXIA-1 3 was lifted into orbit during the mission ‘Long March 6 | Ningxia 1 (x5)’, on board a Long March 6 space rocket.

The launch took place on Nov. 13, 2019, 6:35 a.m. from Launch Complex 16.

For more information about the launch, click the button.

Launch to space Long March 6 | Ningxia 1 (x5)
Long March 6 | Ningxia 1 (x5)

Agency: N/A

Status: Launch Successful

Launch date: Nov. 13, 2019, 6:35 a.m. UTC

Rocket: Long March 6

Launch pad: Launch Complex 16

Location: Taiyuan Satellite Launch Center, People's Republic of China

...

Latest news about this satellite

News about space launch
Long March 6 lofts five Ningxia-1 satellites

News about space launch
Two Chinese satellite launchers lift off three hours apart


Newsletter sign-up

Weekly statistics, charts and insights to help you stay on top of the space industry.